Погода в Галлиполи

Италия     40°03′17″N   17°59′46″E
темп.,
°C
ветер,
м/с
пор.,
м/с
влажн.,
%
обл.,
%
осадки,
мм/ч
давл.,
гПа
погр.,
м
18 сентября, сб
сб1823:00+26ю67735 0.0 1012137
02:00+26ююз567716 0.0 1012108
05:00+26ююз3371100 0.0 101226
08:00+27юв4462100 0.0 101346
11:00+26ююз78686 0.0 1013293
14:00+26юз57705 0.0 1013340
17:00+27ю69726 0.0 1012253
20:00+26ююз79795 0.0 1012187
19 сентября, вс
вс1923:00+26ююз468149 0.0 1012130
02:00+26юз23775 0.0 101225
05:00+26з117288 0.0 101211
08:00+26с2273100 0.0 101330
11:00+27ююз226644 0.1 1013192
14:00+27ю56689 0.1 1012244
17:00+27ююв78720 0.0 1011245
20:00+26ююв68780 0.0 1011207
20 сентября, пн
пн2023:00+25ююз44820 0.0 1012100
02:00+25з67770 0.0 1012275
05:00+25зсз45750 0.0 1012299
08:00+25сз44700 0.0 1014288
11:00+25юз43680 0.0 1015390
14:00+25юз33640 0.0 1014321
17:00+26ю676899 0.0 1013309
20:00+25ю68740 0.0 1014238
21 сентября, вт
вт2123:00+25юз46764 0.0 1015194
02:00+25сз45775 0.0 1015174
05:00+24ссв686876 0.0 1016494
08:00+24ссз555196 0.0 1017427
11:00+24сз455774 0.0 1018501
14:00+25з55583 0.0 1018317
17:00+26с99571 0.0 1018650
20:00+23с810653 0.0 1019714
22 сентября, ср
ср2223:00+22с79676 0.0 1020692
02:00+22с896762 0.0 1019705
05:00+21ссз8968100 0.0 1019829
08:00+21ссз91070100 0.0 1018925
11:00+23ссз89602 0.0 10181264
14:00+24ссз810470 0.0 10171904
17:00+24с1213485 0.0 10151302
20:00+21ссз121454100 0.0 10161080